Chicago DuPage, IL

11:54 AM CDT on May 21, 2018 (GMT -0500)
Du Page

Weather History for KDPA - July, 2013

Change the Weather History Date:

Monday, July 29, 2013

  Actual Average Record
Temperature  
Mean Temperature 65 °F 73 °F  
Max Temperature 77 °F 84 °F 95 °F (1999)
Min Temperature 52 °F 63 °F 52 °F (1997)
Degree Days  
Heating Degree Days 0 0  
Month to date heating degree days 17 0  
Since 1 June heating degree days 71 36  
Since 1 July heating degree days 17 0  
Cooling Degree Days 0 8  
Month to date cooling degree days 216 260  
Year to date cooling degree days 432 484  
Since 1 June cooling degree days 355 438  
Growing Degree Days 14 (Base 50)    
Moisture  
Dew Point 55 °F    
Average Humidity 70    
Maximum Humidity 90    
Minimum Humidity 51    
Precipitation  
Precipitation 0.00 in 0.15 in 0.53 in (2016)
Month to date precipitation 4.51 3.78  
Year to date precipitation 24.70 20.69  
Sea Level Pressure  
Sea Level Pressure 30.12 in    
Wind  
Wind Speed 5 mph (WNW)    
Max Wind Speed 14 mph    
Max Gust Speed 17 mph    
Visibility 10 miles    
Events      
T = Trace of Precipitation, MM = Missing Value Source: NWS Daily Summary

Daily Weather History Graph

Daily Weather History Graph

Search for Another Location

Airport or City:

Astronomy

Jul. 29, 2013 Rise Set
Actual Time 5:43 AM CDT 8:14 PM CDT
Civil Twilight 5:12 AM CDT 8:46 PM CDT
Nautical Twilight 4:32 AM CDT 9:25 PM CDT
Astronomical Twilight 3:48 AM CDT 10:09 PM CDT
Moon No Moon Rise 1:34 PM CDT (7/29)
Length of Visible Light 15h 33m
Length of Day
14h 30m
Waning Gibbous, 50% of the Moon is Illuminated
Jul 29
Waning Gibbous
Jul 29
Last Quarter
Aug 6
New
Aug 14
First Quarter
Aug 20
Full

Hourly Weather History & Observations

Time (CDT) Temp. Dew Point Humidity Pressure Visibility Wind Dir Wind Speed Gust Speed Precip Events Conditions
12:52 AM 59.0 °F 52.0 °F 78% 30.03 in 10.0 mi West 5.8 mph - N/A   Overcast
1:52 AM 55.9 °F 51.1 °F 84% 30.04 in 10.0 mi West 5.8 mph - N/A   Partly Cloudy
2:52 AM 55.9 °F 51.1 °F 84% 30.04 in 10.0 mi West 5.8 mph - N/A   Partly Cloudy
3:52 AM 54.0 °F 51.1 °F 90% 30.04 in 10.0 mi West 4.6 mph - N/A   Clear
4:52 AM 54.0 °F 51.1 °F 90% 30.06 in 10.0 mi West 3.5 mph - N/A   Clear
5:52 AM 53.1 °F 50.0 °F 89% 30.08 in 10.0 mi Calm Calm - N/A   Clear
6:52 AM 57.0 °F 52.0 °F 83% 30.10 in 10.0 mi NW 3.5 mph - N/A   Clear
7:52 AM 61.0 °F 53.1 °F 75% 30.11 in 10.0 mi WNW 3.5 mph - N/A   Clear
8:52 AM 64.9 °F 54.0 °F 68% 30.12 in 10.0 mi WNW 5.8 mph - N/A   Clear
9:52 AM 66.9 °F 54.0 °F 63% 30.13 in 10.0 mi West 8.1 mph - N/A   Clear
10:52 AM 70.0 °F 54.0 °F 57% 30.13 in 10.0 mi WNW 11.5 mph - N/A   Clear
11:52 AM 71.1 °F 55.0 °F 57% 30.14 in 10.0 mi WNW 10.4 mph - N/A   Clear
12:52 PM 71.1 °F 55.9 °F 59% 30.14 in 10.0 mi West 6.9 mph - N/A   Mostly Cloudy
1:52 PM 72.0 °F 55.9 °F 57% 30.13 in 10.0 mi NNW 4.6 mph - N/A   Scattered Clouds
2:52 PM 75.0 °F 57.0 °F 53% 30.12 in 10.0 mi NW 6.9 mph - N/A   Partly Cloudy
3:52 PM 75.9 °F 57.0 °F 52% 30.13 in 10.0 mi North 4.6 mph - N/A   Overcast
4:52 PM 73.9 °F 55.9 °F 53% 30.14 in 10.0 mi Calm Calm - N/A   Scattered Clouds
5:52 PM 75.0 °F 55.9 °F 51% 30.14 in 10.0 mi Calm Calm - N/A   Scattered Clouds
6:52 PM 73.0 °F 57.9 °F 59% 30.14 in 10.0 mi Calm Calm - N/A   Mostly Cloudy
7:52 PM 70.0 °F 57.9 °F 65% 30.14 in 10.0 mi East 8.1 mph - N/A   Scattered Clouds
8:52 PM 66.0 °F 57.0 °F 73% 30.16 in 10.0 mi East 5.8 mph - N/A   Clear
9:52 PM 63.0 °F 57.0 °F 81% 30.17 in 10.0 mi East 3.5 mph - N/A   Clear
10:52 PM 62.1 °F 55.9 °F 80% 30.17 in 10.0 mi ESE 4.6 mph - N/A   Clear
11:52 PM 61.0 °F 57.0 °F 87% 30.18 in 10.0 mi Calm Calm - N/A   Clear